When you browse on this site, cookies collect data to enhance your experience and personalize the content and advertising you see.
Visit our Privacy Policy to learn more. By continuing to use the site, you agree to this use of cookies and data.
  • în România
  • Lista ţărilor
  • Pe 7 zile
  • Temperatura apei
  • Meteo pe hartă
  • Widget-uri
  • user-avatar
    Intrare

    Meteo pe oră la Northampton

    Astăzi, 2 Iunie, Marţi

    Timp Temperatura Precipitaţii Vânt Presiune Umiditate
    00:00 +9°C° 0 mm 2 m/s 758 mmHg 92%
    01:00 +8°C° 0 mm 2 m/s 758 mmHg 93%
    02:00 +8°C° 0 mm 2 m/s 758 mmHg 93%
    03:00 +8°C° 0 mm 2 m/s 758 mmHg 93%
    04:00 +8°C° 0 mm 2 m/s 758 mmHg 91%
    05:00 +9°C° 0 mm 2 m/s 757 mmHg 89%
    06:00 +10°C° 0 mm 2 m/s 757 mmHg 86%
    07:00 +13°C° 0 mm 2 m/s 757 mmHg 80%
    08:00 +13°C° 0 mm 3 m/s 757 mmHg 74%
    09:00 +16°C° 0 mm 3 m/s 757 mmHg 68%
    10:00 +17°C° 0 mm 3 m/s 757 mmHg 64%
    11:00 +18°C° 0 mm 2 m/s 757 mmHg 60%
    12:00 +19°C° 0 mm 2 m/s 756 mmHg 56%
    13:00 +19°C° 0 mm 2 m/s 756 mmHg 55%
    14:00 +20°C° 0 mm 2 m/s 755 mmHg 55%
    15:00 +20°C° 0 mm 2 m/s 754 mmHg 54%
    16:00 +20°C° 0 mm 2 m/s 754 mmHg 59%
    17:00 +21°C° 0 mm 1 m/s 753 mmHg 64%
    18:00 +21°C° 0 mm 1 m/s 753 mmHg 69%
    19:00 +19°C° 0 mm 1 m/s 753 mmHg 71%
    20:00 +16°C° 0 mm 1 m/s 752 mmHg 73%
    21:00 +14°C° 0 mm 1 m/s 752 mmHg 75%
    22:00 +14°C° 0 mm 2 m/s 752 mmHg 77%
    23:00 +13°C° 0 mm 2 m/s 751 mmHg 79%

    Mâine, 3 Iunie, Miercuri

    Timp Temperatura Precipitaţii Vânt Presiune Umiditate
    00:00 +13°C° 0 mm 2 m/s 751 mmHg 80%
    01:00 +13°C° 0 mm 2 m/s 750 mmHg 80%
    02:00 +13°C° 0 mm 2 m/s 750 mmHg 79%
    03:00 +13°C° 0 mm 2 m/s 749 mmHg 78%
    04:00 +13°C° 0 mm 2 m/s 749 mmHg 79%
    05:00 +13°C° 0 mm 2 m/s 748 mmHg 80%
    06:00 +13°C° 0 mm 2 m/s 748 mmHg 82%
    07:00 +13°C° 0 mm 3 m/s 748 mmHg 82%
    08:00 +13°C° 0 mm 4 m/s 748 mmHg 82%
    09:00 +13°C° 0 mm 4 m/s 748 mmHg 82%
    10:00 +12°C° 0.2 mm 4 m/s 748 mmHg 85%
    11:00 +12°C° 0.2 mm 4 m/s 748 mmHg 87%
    12:00 +10°C° 0.2 mm 5 m/s 748 mmHg 90%
    13:00 +10°C° 0.1 mm 5 m/s 747 mmHg 89%
    14:00 +10°C° 0.1 mm 5 m/s 747 mmHg 89%
    15:00 +10°C° 0.1 mm 5 m/s 747 mmHg 89%
    16:00 +12°C° 0 mm 4 m/s 747 mmHg 88%
    17:00 +12°C° 0 mm 4 m/s 747 mmHg 87%
    18:00 +12°C° 0 mm 4 m/s 747 mmHg 86%
    19:00 +11°C° 0 mm 3 m/s 747 mmHg 87%
    20:00 +10°C° 0 mm 3 m/s 747 mmHg 89%
    21:00 +9°C° 0 mm 3 m/s 747 mmHg 90%
    22:00 +9°C° 0 mm 3 m/s 747 mmHg 91%
    23:00 +9°C° 0 mm 3 m/s 747 mmHg 92%

    Poimâine, 4 Iunie, Joi

    Timp Temperatura Precipitaţii Vânt Presiune Umiditate
    00:00 +8°C° 0 mm 4 m/s 747 mmHg 94%
    01:00 +8°C° 0 mm 4 m/s 747 mmHg 94%
    02:00 +8°C° 0 mm 4 m/s 746 mmHg 94%
    03:00 +8°C° 0 mm 5 m/s 746 mmHg 95%
    04:00 +8°C° 0 mm 5 m/s 746 mmHg 92%
    05:00 +7°C° 0 mm 5 m/s 746 mmHg 89%
    06:00 +7°C° 0 mm 5 m/s 745 mmHg 87%
    07:00 +8°C° 0 mm 5 m/s 745 mmHg 80%
    08:00 +9°C° 0 mm 5 m/s 745 mmHg 73%
    09:00 +10°C° 0 mm 5 m/s 745 mmHg 66%
    10:00 +12°C° 0 mm 5 m/s 745 mmHg 65%
    11:00 +12°C° 0 mm 5 m/s 744 mmHg 64%
    12:00 +13°C° 0 mm 4 m/s 744 mmHg 63%
    13:00 +13°C° 0.1 mm 4 m/s 744 mmHg 65%
    14:00 +13°C° 0.1 mm 4 m/s 743 mmHg 67%
    15:00 +13°C° 0.1 mm 4 m/s 743 mmHg 70%
    16:00 +12°C° 0.3 mm 3 m/s 743 mmHg 74%
    17:00 +12°C° 0.3 mm 3 m/s 742 mmHg 78%
    18:00 +12°C° 0.3 mm 3 m/s 742 mmHg 82%
    19:00 +11°C° 0.3 mm 3 m/s 742 mmHg 86%
    20:00 +10°C° 0.3 mm 3 m/s 742 mmHg 89%
    21:00 +9°C° 0.3 mm 3 m/s 742 mmHg 92%
    22:00 +8°C° 0.2 mm 3 m/s 742 mmHg 94%
    23:00 +8°C° 0.2 mm 3 m/s 742 mmHg 95%

    5 Iunie, Vineri

    Timp Temperatura Precipitaţii Vânt Presiune Umiditate
    00:00 +7°C° 0.2 mm 3 m/s 741 mmHg 97%
    01:00 +7°C° 0.2 mm 2 m/s 741 mmHg 96%
    02:00 +7°C° 0.2 mm 2 m/s 741 mmHg 96%
    03:00 +7°C° 0.2 mm 2 m/s 741 mmHg 96%
    04:00 +7°C° 0 mm 2 m/s 741 mmHg 94%
    05:00 +7°C° 0 mm 3 m/s 741 mmHg 92%
    06:00 +8°C° 0 mm 3 m/s 742 mmHg 90%
    07:00 +9°C° 0 mm 3 m/s 742 mmHg 81%
    08:00 +10°C° 0 mm 4 m/s 742 mmHg 72%
    09:00 +12°C° 0 mm 4 m/s 742 mmHg 64%
    10:00 +12°C° 0.2 mm 4 m/s 741 mmHg 67%
    11:00 +13°C° 0.2 mm 5 m/s 741 mmHg 70%
    12:00 +13°C° 0.2 mm 5 m/s 741 mmHg 73%
    13:00 +13°C° 0.3 mm 6 m/s 741 mmHg 70%
    14:00 +13°C° 0.3 mm 6 m/s 740 mmHg 68%
    15:00 +14°C° 0.3 mm 7 m/s 740 mmHg 65%
    16:00 +13°C° 0.1 mm 6 m/s 740 mmHg 65%
    17:00 +13°C° 0.1 mm 6 m/s 740 mmHg 66%
    18:00 +11°C° 0.1 mm 6 m/s 740 mmHg 66%
    19:00 +10°C° 0 mm 5 m/s 740 mmHg 69%
    20:00 +8°C° 0 mm 5 m/s 740 mmHg 71%
    21:00 +7°C° 0 mm 4 m/s 741 mmHg 73%
    22:00 +6°C° 0 mm 4 m/s 741 mmHg 76%
    23:00 +6°C° 0 mm 5 m/s 741 mmHg 79%

    6 Iunie, Sâmbătă

    Timp Temperatura Precipitaţii Vânt Presiune Umiditate
    00:00 +5°C° 0 mm 5 m/s 741 mmHg 81%
    01:00 +5°C° 0 mm 5 m/s 741 mmHg 82%
    02:00 +5°C° 0 mm 5 m/s 741 mmHg 82%
    03:00 +3°C° 0 mm 5 m/s 742 mmHg 82%
    04:00 +4°C° 0 mm 6 m/s 742 mmHg 79%
    05:00 +5°C° 0 mm 6 m/s 742 mmHg 77%
    06:00 +5°C° 0 mm 6 m/s 742 mmHg 74%
    07:00 +6°C° 0.1 mm 7 m/s 743 mmHg 72%
    08:00 +7°C° 0.1 mm 8 m/s 743 mmHg 69%
    09:00 +9°C° 0.1 mm 8 m/s 743 mmHg 67%
    10:00 +9°C° 0.1 mm 8 m/s 743 mmHg 65%
    11:00 +10°C° 0.1 mm 9 m/s 743 mmHg 63%
    12:00 +10°C° 0.1 mm 9 m/s 744 mmHg 61%
    13:00 +10°C° 0.1 mm 9 m/s 744 mmHg 62%
    14:00 +10°C° 0.1 mm 9 m/s 744 mmHg 62%
    15:00 +10°C° 0.1 mm 9 m/s 744 mmHg 62%
    16:00 +10°C° 0.1 mm 8 m/s 744 mmHg 65%
    17:00 +9°C° 0.1 mm 7 m/s 744 mmHg 68%
    18:00 +9°C° 0.1 mm 6 m/s 744 mmHg 71%
    19:00 +8°C° 0 mm 5 m/s 745 mmHg 73%
    20:00 +7°C° 0 mm 5 m/s 745 mmHg 75%
    21:00 +6°C° 0 mm 5 m/s 745 mmHg 78%
    22:00 +5°C° 0 mm 5 m/s 745 mmHg 79%
    23:00 +5°C° 0 mm 5 m/s 745 mmHg 81%

    7 Iunie, Duminică

    Timp Temperatura Precipitaţii Vânt Presiune Umiditate
    00:00 +3°C° 0 mm 5 m/s 746 mmHg 82%
    01:00 +3°C° 0 mm 5 m/s 746 mmHg 83%
    02:00 +3°C° 0 mm 5 m/s 746 mmHg 84%
    03:00 +2°C° 0 mm 5 m/s 746 mmHg 85%
    04:00 +3°C° 0 mm 6 m/s 746 mmHg 82%
    05:00 +4°C° 0 mm 6 m/s 746 mmHg 80%
    06:00 +5°C° 0 mm 7 m/s 746 mmHg 77%
    07:00 +6°C° 0 mm 7 m/s 747 mmHg 72%
    08:00 +9°C° 0 mm 7 m/s 747 mmHg 67%
    09:00 +10°C° 0 mm 8 m/s 747 mmHg 61%
    10:00 +10°C° 0.1 mm 7 m/s 748 mmHg 64%
    11:00 +10°C° 0.1 mm 7 m/s 748 mmHg 66%
    12:00 +10°C° 0.1 mm 6 m/s 748 mmHg 68%
    13:00 +11°C° 0.1 mm 6 m/s 748 mmHg 65%
    14:00 +12°C° 0.1 mm 7 m/s 748 mmHg 61%
    15:00 +12°C° 0.1 mm 7 m/s 748 mmHg 58%
    16:00 +13°C° 0.1 mm 6 m/s 748 mmHg 64%
    17:00 +12°C° 0.1 mm 5 m/s 748 mmHg 69%
    18:00 +12°C° 0.1 mm 4 m/s 748 mmHg 74%
    19:00 +11°C° 0 mm 4 m/s 748 mmHg 77%
    20:00 +9°C° 0 mm 5 m/s 748 mmHg 81%
    21:00 +8°C° 0 mm 5 m/s 749 mmHg 84%
    22:00 +8°C° 0 mm 5 m/s 749 mmHg 84%
    23:00 +7°C° 0 mm 5 m/s 748 mmHg 84%
    Arată mai mult